Regional Weather Roundup
Issued by NWS

Home | Current Version | Previous Version | Graphics & Text | Print | Product List | Glossary Off
Versions: 1 2 3 4 5 6 7 8 9 10 11 12 13 14 15 16 17 18 19 20 21 22 23 24 25 26 27 28 29 30 31 32 33 34 35 36 37 38 39 40 41 42 43 44 45 46 47 48 49 50

000
ASUS45 KCYS 270610
RWRWY

WYOMING REGIONAL WEATHER ROUNDUP
NATIONAL WEATHER SERVICE CHEYENNE WY
1100 PM MST MON JAN 26 2015

NOTE:  "FAIR" INDICATES FEW OR NO CLOUDS BELOW 12,000 FEET
WITH NO SIGNIFICANT WEATHER AND/OR OBSTRUCTIONS TO VISIBILITY.

WYZ001-270700-
YELLOWSTONE NATIONAL PARK

CITY           SKY/WX    TMP DP  RH WIND       PRES   REMARKS
LK YELLOWSTONE   N/A     14  11  87 CALM      30.32S
6HR MIN TEMP:  14; 6HR MAX TEMP:  28;

W YELLOWSTONE  NOT AVBL

$$
WYZ002>013-054>058-071-098>099-270700-
NORTHERN WYOMING

CITY           SKY/WX    TMP DP  RH WIND       PRES   REMARKS
JACKSON        FAIR      12  12 100 N6        30.32S WCI   3
CODY           FAIR      39  28  65 SE6       30.12S WCI  35
GREYBULL       FAIR      22  20  92 CALM      30.14S
6HR MIN TEMP:  20; 6HR MAX TEMP:  34;

WORLAND        FAIR      21  18  88 S3        30.13S
6HR MIN TEMP:  20; 6HR MAX TEMP:  33;

SHERIDAN       FAIR      42  25  50 SW3       30.00S
6HR MIN TEMP:  38; 6HR MAX TEMP:  52;

BUFFALO        FAIR      49  23  36 N9        30.05F
6HR MIN TEMP:  48; 6HR MAX TEMP:  60;

GILLETTE       FAIR      49  27  42 SW15      30.01F
6HR MIN TEMP:  49; 6HR MAX TEMP:  53;

HULETT           N/A    N/A N/A N/A MISG        N/A
NEWCASTLE      FAIR      34  30  86 NE3       30.07S

$$
WYZ014>020-022>026-101>103-270700-
CENTRAL WYOMING

CITY           SKY/WX    TMP DP  RH WIND       PRES   REMARKS
BIG PINEY      FAIR      20  16  84 N8        30.31F WCI  10
6HR MIN TEMP:  19; 6HR MAX TEMP:  40;

PINEDALE       FAIR      16  14  93 W3        30.34R
DUBOIS         FAIR      34  21  60 NW12      30.25R WCI  25
LANDER         FAIR      32  26  78 E5        30.19S WCI  27
6HR MIN TEMP:  27; 6HR MAX TEMP:  40;

RIVERTON       FAIR      32  26  78 NW7       30.21R WCI  26
6HR MIN TEMP:  30; 6HR MAX TEMP:  41;

CASPER         FAIR      46  25  43 SW15      30.17R
6HR MIN TEMP:  42; 6HR MAX TEMP:  48;

DOUGLAS        FAIR      36  26  67 NW3       30.13F
6HR MIN TEMP:  33; 6HR MAX TEMP:  55;


$$
WYZ021-027>030-104>119-270700-
SOUTHERN WYOMING

CITY           SKY/WX    TMP DP  RH WIND       PRES   REMARKS
EVANSTON       FAIR      39  29  67 SE3       30.29R
6HR MIN TEMP:  34; 6HR MAX TEMP:  49;

KEMMERER       FAIR      32  23  69 N8        30.30S WCI  25
FORT BRIDGER   FAIR      39  32  75 W3        30.32R
ROCK SPRINGS   FAIR      37  25  61 CALM      30.28S
6HR MIN TEMP:  33; 6HR MAX TEMP:  49;

DIXON          FAIR      30  24  77 E7        30.34S WCI  23
RAWLINS        FAIR      26  23  88 CALM      30.31S
6HR MIN TEMP:  26; 6HR MAX TEMP:  46;

SARATOGA       FAIR      32  27  80 MISG      30.32R
LARAMIE        FAIR      28  21  75 S9        30.29R WCI  19
6HR MIN TEMP:  26; 6HR MAX TEMP:  41;

CHEYENNE       FAIR      44  19  36 W13       30.21S
6HR MIN TEMP:  40; 6HR MAX TEMP:  58;

TORRINGTON     FAIR      35  26  69 E7        30.10S WCI  29
6HR MIN TEMP:  33; 6HR MAX TEMP:  58;

PINE BLUFFS    FAIR      36  25  64 SW7       30.18S WCI  30

$$


USA.gov is the U.S. government's official web portal to all federal, state and local government web resources and services.